Location: Fredericksburg
(30.2750°N, 98.8720°W)
Time: 21:15:45
(UTC-05:00)

Daily predictions for brighter satellites

Satellite Brightness Start Highest point End
(mag) Time Altitude Azimuth Time Altitude Azimuth Time Altitude Azimuth
Cosmos 2219 3.3 20:20:58 10° NNW 20:26:36 83° WSW 20:32:13 10° SSE
Cosmos 1697 Rocket 3.8 20:26:32 10° SSE 20:30:46 22° E 20:35:01 10° NE
OAO 2 Rocket 3.7 20:27:13 10° W 20:32:09 63° NNW 20:37:11 10° ENE
Cosmos 2239 Rocket 4.5 20:25:58 10° S 20:32:12 79° E 20:38:23 10° N
Cosmos 1777 Rocket 4.2 20:27:25 10° N 20:32:34 53° ENE 20:37:41 10° SSE
Cosmos 1633 3.7 20:29:47 10° SSW 20:33:20 49° W 20:36:52 10° N
FREGAT/IRIS 3.2 20:32:57 10° S 20:36:02 63° W 20:39:09 10° NNW
Cosmos 2278 3.7 20:32:22 10° SSW 20:38:01 85° ESE 20:43:44 10° NNE
METEOR-M 4.1 20:34:05 10° SSE 20:39:24 77° ENE 20:44:45 10° N
Cosmos 1934 Rocket 3.9 20:33:48 10° S 20:39:50 70° E 20:46:00 10° N
Resurs 01 Rocket 1.6 20:36:44 10° SSE 20:41:09 84° ENE 20:45:36 10° N
Delta 2 Rocket 4.3 20:36:43 10° WNW 20:42:27 62° NNE 20:47:21 12° E
NOSS 3-4 (A) 4.2 20:36:06 10° NNW 20:42:59 49° ENE 20:50:13 10° SE
NOSS 3-4 (C) 4.2 20:36:14 10° NNW 20:43:07 49° ENE 20:50:19 10° SE
Cosmos 1544 Rocket 3.6 20:38:55 10° S 20:43:16 88° W 20:47:40 10° N
Meteor 2-4 Rocket 3.8 20:40:25 10° N 20:46:20 86° E 20:52:16 10° S
ALOS 2.8 20:42:00 10° SE 20:46:20 39° ENE 20:50:41 10° N
Cosmos 1975 3.6 20:45:30 10° SSE 20:49:07 31° E 20:52:45 10° NNE
Cosmos 2208 Rocket 4.4 20:44:15 10° SSW 20:49:29 71° WNW 20:54:52 10° N
H-2A R/B 3.6 20:46:10 10° SE 20:49:33 30° ENE 20:53:00 10° NNE
Spot 2 Rocket 3.7 20:45:32 10° S 20:50:37 77° WSW 20:55:43 10° NNW
CZ-4B DEB 2.9 20:48:46 10° SSE 20:51:57 53° ENE 20:55:09 10° N
Cosmos 2369 3.8 20:46:30 10° SSW 20:52:09 81° WNW 20:57:51 10° NNE
Cosmos 1980 Rocket 3.3 20:49:47 10° SSE 20:53:51 21° E 20:57:56 10° NE
USA 186 2.8 20:52:39 17° ESE 20:54:08 25° ENE 20:56:39 10° NNE
EO 1 Delta rocket 4.2 20:50:57 10° NNE 20:55:47 60° E 21:01:35 10° S
Lacrosse 5 rocket 2.8 20:57:47 10° N 21:00:26 18° NE 21:01:42 16° ENE
OTV 4 1.8 21:01:31 10° NW 21:04:12 30° NNE 21:05:33 20° ENE
Okean 2 3.4 21:00:20 10° N 21:04:30 85° W 21:08:37 10° S
Iridium 4 Rocket 3.9 21:05:04 10° NNE 21:09:29 34° E 21:11:35 23° SE
CZ-2D R/B 3.2 21:06:37 12° SSE 21:10:03 66° ENE 21:13:54 10° N
FENGYUN 3A 3.6 21:09:42 10° SSE 21:15:02 80° ENE 21:20:24 10° N
Fermi 4.4 21:11:16 10° WSW 21:15:03 37° S 21:16:17 29° SE
Meteor 1-12 Rocket 4.2 21:10:06 10° S 21:15:47 83° E 21:21:36 10° N
Hubble Space Telescope 2.0 21:14:32 10° W 21:18:13 31° SSW 21:19:50 23° SSE
Cosmos 1656 3.7 21:12:52 10° SSW 21:18:30 88° WNW 21:24:07 10° NNE
Cosmos 1500 3.2 21:20:59 28° SSE 21:22:38 51° E 21:26:18 10° NNE
Cosmos 2173 Rocket 4.4 21:19:14 15° SSE 21:23:58 39° E 21:29:48 10° NNE
Cosmos 1939 Rocket 4.3 21:25:53 23° ENE 21:25:53 23° ENE 21:28:42 10° NNE
Cosmos 2227 Rocket 2.1 21:22:59 10° NNW 21:28:40 86° ENE 21:32:24 22° SSE
Cosmos 1605 Rocket 4.4 21:22:31 10° SSW 21:28:49 65° W 21:35:04 10° N
ERS-1 Rocket 3.6 21:28:09 33° E 21:29:13 37° ENE 21:33:48 10° N
Lacrosse 5 3.5 21:31:41 10° N 21:35:14 19° NE 21:36:04 18° NE
Cosmos 1461 2.7 21:31:27 10° NNW 21:35:27 78° WSW 21:36:30 46° SSE
Cosmos 1346 Rocket 4.1 21:31:57 10° NNW 21:35:40 39° W 21:39:24 10° SSW
Cosmos 2100 Rocket 4.0 21:31:28 10° S 21:37:38 58° E 21:43:44 10° NNE
YAOGAN 11 4.3 21:37:57 47° ESE 21:38:32 51° ENE 21:42:52 10° N
H-2A R/B 3.9 21:40:46 16° NE 21:40:46 16° NE 21:42:12 10° NNE
DELTA 2 R/B (1) 4.3 21:35:01 10° NW 21:40:18 43° NNE 21:42:25 30° ENE
Cosmos 1763 Rocket 3.8 21:41:43 41° E 21:41:43 41° E 21:45:52 10° NNE
Cosmos 2082 3.8 21:38:09 10° NNW 21:43:46 74° WSW 21:46:55 27° S
Cosmos 2297 Rocket 2.1 21:38:17 10° NNW 21:43:57 82° ENE 21:46:11 39° SSE
Cosmos 2061 Rocket 4.0 21:40:15 19° SSE 21:44:49 61° E 21:50:59 10° NNE
Cosmos 1898 Rocket 3.6 21:42:26 10° N 21:47:36 53° ENE 21:48:07 51° E
Cosmos 1626 Rocket 3.8 21:44:09 10° NNW 21:48:30 68° W 21:50:16 34° SSW
Cosmos 1515 3.7 21:48:04 10° N 21:51:43 79° NNW 21:51:43 79° NNW
CZ-4 DEB 4.5 21:55:43 27° N 21:55:43 27° N 21:57:18 10° N
Nimbus 7 Rocket 4.4 21:51:20 10° NNE 21:57:20 60° ESE 21:58:48 47° SSE
Cosmos 1602 Rocket 4.3 21:53:31 10° NNW 21:57:49 51° W 21:59:40 30° SSW
RESURS DK-1 4.0 21:54:16 10° N 21:56:25 24° NNE 21:56:25 24° NNE
SJ-11-01 4.1 21:59:28 73° SSE 21:59:55 90° WSW 22:04:38 10° NNW
Cosmos 1743 3.9 22:01:44 34° N 22:01:44 34° N 22:04:04 10° N
Cosmos 2084 4.2 21:57:29 10° NNW 22:00:33 41° NNE 22:00:33 41° NNE
Cosmos 841 Rocket 3.9 22:04:54 47° NE 22:04:54 47° NE 22:08:44 10° NNE
Cosmos 1459 Rocket 3.9 22:05:22 21° S 22:09:33 78° W 22:15:39 10° N
CZ-3 Stage 3 4.0 20:42:03 10° W 22:10:55 75° SSW 22:13:39 48° SE
Cosmos 1697 Rocket 4.1 22:09:13 10° SW 22:14:25 37° WNW 22:19:38 10° N
OAO 2 Rocket 3.9 22:12:27 10° WNW 22:17:21 50° N 22:17:25 49° N
Milstar 3 Cent rocket 4.0 21:56:13 10° W 22:18:20 80° S 22:22:31 48° ESE
Cosmos 1066 Rocket 4.5 22:13:21 10° NNW 22:19:01 68° W 22:20:14 53° SSW
Cosmos 1980 Rocket 3.4 22:32:11 10° SW 22:37:28 40° WNW 22:42:47 10° N
Lacrosse 5 rocket 3.9 22:36:31 10° WNW 22:37:26 15° WNW 22:37:26 15° WNW
Envisat 3.8 22:40:38 47° WNW 22:40:38 47° WNW 22:44:53 10° NNW
Cosmos 2322 Rocket 4.4 23:14:22 18° N 23:14:22 18° N 23:15:44 10° N
Lacrosse 5 4.1 23:13:32 10° NW 23:15:16 21° NW 23:15:16 21° NW
